This is the latest recevied weather packets stored in our database for station/object NO4D. If no packets are shown the sender has not sent any weather packets the latest 10 day(s).
| Time | Temp. | Humidity | Pressure | Rain* | Wind** | Luminosity | Snow |
|---|---|---|---|---|---|---|---|
| 1777675514 | 18.89° C | 65% | 1011.5 hPa | 0 mm | - | 169 W/m² | - |
| 1777675211 | 19.44° C | 64% | 1011.6 hPa | 0 mm | - | 109 W/m² | - |
| 1777674907 | 19.44° C | 63% | 1012 hPa | 0 mm | - | 142 W/m² | - |
| 1777674604 | 18.89° C | 61% | 1011.8 hPa | 0 mm | - | 137 W/m² | - |
| 1777674301 | 19.44° C | 62% | 1012 hPa | 0 mm | - | 129 W/m² | - |
| 1777673997 | 19.44° C | 62% | 1011.6 hPa | 0 mm | - | 173 W/m² | - |
| 1777673693 | 19.44° C | 60% | 1012.1 hPa | 0 mm | - | 259 W/m² | - |
| 1777673391 | 19.44° C | 61% | 1011.7 hPa | 0 mm | - | 188 W/m² | - |
| 1777673089 | 18.89° C | 62% | 1012.1 hPa | 0 mm | - | 229 W/m² | - |
| 1777672785 | 18.89° C | 60% | 1012.1 hPa | 0 mm | - | 203 W/m² | - |
| 1777672482 | 18.89° C | 60% | 1012.2 hPa | 0 mm | - | 180 W/m² | - |
| 1777672177 | 19.44° C | 61% | 1012.3 hPa | 0 mm | - | 176 W/m² | - |
| 1777671873 | 20° C | 57% | 1012.1 hPa | 0 mm | - | 191 W/m² | - |
| 1777671568 | 20° C | 56% | 1012.3 hPa | 0 mm | - | 474 W/m² | - |
| 1777671266 | 19.44° C | 56% | 1012.3 hPa | 0 mm | - | 511 W/m² | - |
| 1777670961 | 20° C | 58% | 1012.3 hPa | 0 mm | - | 176 W/m² | - |
| 1777670658 | 20° C | 58% | 1012.4 hPa | 0 mm | - | 286 W/m² | - |
| 1777670355 | 20° C | 58% | 1012.3 hPa | 0 mm | - | 449 W/m² | - |
| 1777670052 | 20° C | 57% | 1012.5 hPa | 0 mm | - | 514 W/m² | - |
| 1777669750 | 19.44° C | 58% | 1012.8 hPa | 0 mm | - | 488 W/m² | - |
| 1777669446 | 18.89° C | 59% | 1012.7 hPa | 0 mm | - | 540 W/m² | - |
| 1777669143 | 20° C | 58% | 1012.6 hPa | 0 mm | - | 166 W/m² | - |
| 1777668839 | 20° C | 56% | 1012.7 hPa | 0 mm | - | 494 W/m² | - |
| 1777668536 | 20° C | 56% | 1012.4 hPa | 0 mm | - | 613 W/m² | - |
| 1777668233 | 20° C | 56% | 1012.5 hPa | 0 mm | - | 594 W/m² | - |
* Rain latest hour (hover to see other rain measurements)
** Current wind speed in m/s (hover to see current wind gust speed)